EW2175 Weather Reports


time (UTC)temp
C
wind
direction
speed
KPH
gust
KPH
rain 1hr
cm
rain 24hr
cm
rain mn
cm
humidity
%
barometer
mb
20260505000012 13 101 0.0 0.0 0.00 0.03 0.00 86 1010.2
20260504234507 13 92 0.0 0.0 0.00 0.03 0.00 86 1010.3
20260504233005 13 163 0.0 0.0 0.00 0.03 0.00 86 1010.4
20260504231503 13 64 0.0 0.0 0.00 0.03 0.00 86 1010.5
20260504230005 13 58 0.0 0.0 0.00 0.03 0.00 87 1010.5
20260504224505 13 53 0.0 0.0 0.00 0.03 0.00 87 1010.6
20260504223200 13 39 0.0 0.0 0.00 0.03 0.00 87 1010.6
20260504221558 13 55 0.0 0.0 0.00 0.03 0.00 87 1010.5
20260504220058 13 38 0.0 0.0 0.00 0.03 0.00 86 1010.6
20260504214555 13 92 0.0 0.0 0.00 0.03 0.03 87 1011.0
20260504213054 13 92 0.0 0.0 0.00 0.03 0.03 86 1011.2
20260504211558 13 92 0.0 0.0 0.00 0.03 0.03 86 1011.4
20260504210101 13 92 0.0 0.0 0.00 0.03 0.03 86 1011.4
20260504204554 14 92 0.0 0.0 0.00 0.03 0.03 86 1011.4
20260504203050 14 92 0.0 0.0 0.00 0.03 0.03 86 1011.4
20260504201550 14 92 0.0 0.0 0.00 0.03 0.03 85 1011.5
20260504200100 14 92 0.0 0.0 0.00 0.03 0.03 85 1011.3
20260504194549 14 92 0.0 0.0 0.00 0.03 0.03 85 1011.3
20260504193050 15 71 0.0 0.0 0.00 0.03 0.03 84 1011.3
20260504191604 15 62 0.0 0.0 0.00 0.03 0.03 84 1011.0
20260504190047 15 59 0.0 0.0 0.00 0.03 0.03 84 1010.8
20260504184546 15 54 0.0 0.0 0.00 0.03 0.03 83 1010.8
20260504183043 15 80 0.0 0.0 0.03 0.03 0.03 82 1011.0
20260504181542 15 197 0.0 0.0 0.03 0.03 0.03 81 1011.3
20260504180042 15 197 0.0 0.0 0.03 0.03 0.03 80 1011.5
20260504174540 16 200 0.0 0.0 0.03 0.03 0.03 78 1011.6
20260504173037 16 192 0.0 4.8 0.00 0.00 0.00 76 1011.9
20260504171536 16 132 0.0 3.2 0.00 0.00 0.00 73 1011.9
20260504081539 18 155 0.0 8.0 0.00 0.00 0.00 54 1012.7
20260504050008 12 86 0.0 6.4 0.00 0.00 0.00 69 1012.5
20260504044510 12 79 0.0 11.3 0.00 0.00 0.00 69 1012.6
20260504043005 12 76 0.0 8.0 0.00 0.00 0.00 70 1012.5
20260504041501 11 49 0.0 8.0 0.00 0.00 0.00 71 1012.7
20260504040100 11 121 0.0 3.2 0.00 0.00 0.00 71 1012.8
20260504034600 11 80 0.0 0.0 0.00 0.00 0.00 71 1012.9
20260504033114 11 77 0.0 0.0 0.00 0.00 0.00 71 1012.9
20260504031559 12 77 0.0 0.0 0.00 0.00 0.00 71 1013.0
20260504030114 12 77 0.0 0.0 0.00 0.00 0.00 71 1013.1
20260504024555 12 69 0.0 0.0 0.00 0.23 0.00 71 1013.1
20260504023053 12 83 0.0 0.0 0.00 0.23 0.00 70 1013.0
20260504021553 12 72 0.0 0.0 0.00 0.23 0.00 70 1013.1
20260504020058 12 84 0.0 0.0 0.00 0.23 0.00 71 1013.0
20260504014551 12 84 0.0 0.0 0.00 0.23 0.00 71 1013.0
20260504013054 12 91 0.0 0.0 0.00 0.23 0.00 70 1013.0
20260504011548 12 352 0.0 0.0 0.00 0.23 0.00 69 1013.0
20260504010055 12 352 0.0 0.0 0.00 0.23 0.00 69 1013.0
20260504004546 12 352 0.0 0.0 0.00 0.23 0.00 68 1013.1
20260504003042 13 95 0.0 0.0 0.00 0.23 0.00 68 1013.1
20260504001541 13 150 0.0 0.0 0.00 0.23 0.00 67 1013.2